Time,TemperatureF,DewpointF,PressureIn,WindDirection,WindDirectionDegrees,WindSpeedMPH,WindSpeedGustMPH,Humidity,HourlyPrecipIn,Conditions,Clouds,dailyrainin,SoftwareType,DateUTC
2013-04-20 00:02:00,44.0,42.0,30.43,North,357,2.0,3.0,93,0.00,,,0.00,,2013-04-19 23:02:00,
2013-04-20 00:11:00,44.0,42.0,30.43,North,357,2.0,3.0,93,0.00,,,0.00,,2013-04-19 23:11:00,
2013-04-20 00:21:00,44.0,43.0,30.43,NNW,343,3.0,5.0,95,0.00,,,0.00,,2013-04-19 23:21:00,
2013-04-20 00:31:00,44.0,43.0,30.43,NNW,343,3.0,6.0,95,0.00,,,0.00,,2013-04-19 23:31:00,
2013-04-20 00:42:00,44.0,43.0,30.43,NNW,343,3.0,6.0,95,0.00,,,0.00,,2013-04-19 23:42:00,
2013-04-20 00:52:00,44.0,43.0,30.43,NNW,342,0.0,3.0,96,0.00,,,0.00,,2013-04-19 23:52:00,
2013-04-20 01:01:00,44.0,43.0,30.43,North,357,3.0,6.0,96,0.00,,,0.00,,2013-04-20 00:01:00,
2013-04-20 01:11:00,43.0,42.0,30.40,NNW,343,3.0,5.0,97,0.00,,,0.00,,2013-04-20 00:11:00,
2013-04-20 01:21:00,43.0,42.0,30.40,NNW,343,3.0,5.0,97,0.00,,,0.00,,2013-04-20 00:21:00,
2013-04-20 01:31:00,43.0,42.0,30.40,NNW,341,3.0,5.0,98,0.00,,,0.00,,2013-04-20 00:31:00,
2013-04-20 01:41:00,43.0,42.0,30.40,NNW,341,3.0,5.0,98,0.00,,,0.00,,2013-04-20 00:41:00,
2013-04-20 01:51:00,43.0,42.0,30.40,NNW,344,3.0,5.0,97,0.00,,,0.00,,2013-04-20 00:51:00,
2013-04-20 02:01:00,43.0,42.0,30.40,NNW,338,2.0,3.0,97,0.00,,,0.00,,2013-04-20 01:01:00,
2013-04-20 02:11:00,43.0,42.0,30.40,NNW,338,2.0,3.0,97,0.00,,,0.00,,2013-04-20 01:11:00,
2013-04-20 02:21:00,43.0,42.0,30.40,NNW,333,3.0,5.0,98,0.00,,,0.00,,2013-04-20 01:21:00,
2013-04-20 02:32:00,43.0,42.0,30.40,North,355,3.0,5.0,98,0.00,,,0.00,,2013-04-20 01:32:00,
2013-04-20 02:42:00,43.0,42.0,30.40,North,355,3.0,5.0,98,0.00,,,0.00,,2013-04-20 01:42:00,
2013-04-20 02:51:00,43.0,42.0,30.40,NNW,346,2.0,5.0,98,0.00,,,0.00,,2013-04-20 01:51:00,
2013-04-20 03:01:00,43.0,42.0,30.40,North,0,1.0,3.0,98,0.00,,,0.00,,2013-04-20 02:01:00,
2013-04-20 03:11:00,43.0,42.0,30.40,NNW,338,3.0,5.0,98,0.00,,,0.00,,2013-04-20 02:11:00,
2013-04-20 03:21:00,43.0,42.0,30.40,NNW,338,3.0,5.0,98,0.00,,,0.00,,2013-04-20 02:21:00,
2013-04-20 03:31:00,43.0,42.0,30.40,North,353,3.0,7.0,98,0.00,,,0.00,,2013-04-20 02:31:00,
2013-04-20 03:42:00,43.0,42.0,30.40,North,353,3.0,7.0,98,0.00,,,0.00,,2013-04-20 02:42:00,
2013-04-20 03:52:00,43.0,42.0,30.40,NNW,338,3.0,5.0,98,0.00,,,0.00,,2013-04-20 02:52:00,
2013-04-20 04:01:00,42.0,41.0,30.40,North,0,0.0,0.0,98,0.00,,,0.00,,2013-04-20 03:01:00,
2013-04-20 04:11:00,42.0,41.0,30.40,WNW,298,1.0,2.0,98,0.00,,,0.00,,2013-04-20 03:11:00,
2013-04-20 04:21:00,42.0,41.0,30.40,WNW,298,1.0,2.0,98,0.00,,,0.00,,2013-04-20 03:21:00,
2013-04-20 04:33:00,42.0,41.0,30.40,NNW,327,0.0,1.0,98,0.00,,,0.00,,2013-04-20 03:33:00,
2013-04-20 04:43:00,42.0,41.0,30.40,North,350,3.0,6.0,98,0.00,,,0.00,,2013-04-20 03:43:00,
2013-04-20 04:52:00,42.0,41.0,30.40,North,350,3.0,6.0,98,0.00,,,0.00,,2013-04-20 03:52:00,
2013-04-20 05:02:00,42.0,41.0,30.40,NNW,338,5.0,7.0,98,0.00,,,0.00,,2013-04-20 04:02:00,
2013-04-20 05:12:00,42.0,41.0,30.40,NNW,338,5.0,7.0,98,0.00,,,0.00,,2013-04-20 04:12:00,
2013-04-20 05:22:00,42.0,41.0,30.37,NNE,25,3.0,5.0,98,0.00,,,0.00,,2013-04-20 04:22:00,
2013-04-20 05:32:00,41.0,40.0,30.40,North,2,1.0,5.0,98,0.00,,,0.00,,2013-04-20 04:32:00,
2013-04-20 05:42:00,41.0,40.0,30.40,North,2,1.0,5.0,98,0.00,,,0.00,,2013-04-20 04:42:00,
2013-04-20 05:52:00,41.0,40.0,30.40,North,351,2.0,6.0,98,0.00,,,0.00,,2013-04-20 04:52:00,
2013-04-20 06:01:00,41.0,40.0,30.40,NNW,334,4.0,6.0,98,0.00,,,0.00,,2013-04-20 05:01:00,
2013-04-20 06:12:00,41.0,40.0,30.40,NNW,334,4.0,6.0,98,0.00,,,0.00,,2013-04-20 05:12:00,
2013-04-20 06:21:00,41.0,40.0,30.37,NNW,338,5.0,6.0,98,0.00,,,0.00,,2013-04-20 05:21:00,
2013-04-20 06:32:00,40.0,39.0,30.37,NNW,338,5.0,7.0,98,0.00,,,0.00,,2013-04-20 05:32:00,
2013-04-20 06:42:00,40.0,39.0,30.37,NNW,338,5.0,7.0,98,0.00,,,0.00,,2013-04-20 05:42:00,
2013-04-20 06:52:00,40.0,39.0,30.37,NNW,345,3.0,5.0,98,0.00,,,0.00,,2013-04-20 05:52:00,
2013-04-20 07:01:00,40.0,39.0,30.37,NNW,345,2.0,6.0,98,0.00,,,0.00,,2013-04-20 06:01:00,
2013-04-20 07:12:00,40.0,39.0,30.37,NNW,345,2.0,6.0,98,0.00,,,0.00,,2013-04-20 06:12:00,
2013-04-20 07:21:00,40.0,39.0,30.37,NNW,338,2.0,5.0,98,0.00,,,0.00,,2013-04-20 06:21:00,
2013-04-20 07:31:00,40.0,39.0,30.40,NNW,338,0.0,3.0,98,0.00,,,0.00,,2013-04-20 06:31:00,
2013-04-20 07:42:00,40.0,39.0,30.40,NNW,338,0.0,3.0,98,0.00,,,0.00,,2013-04-20 06:42:00,
2013-04-20 07:52:00,41.0,40.0,30.40,NNW,341,0.0,0.0,98,0.00,,,0.00,,2013-04-20 06:52:00,
2013-04-20 08:01:00,42.0,41.0,30.40,NNE,22,0.0,0.0,98,0.00,,,0.00,,2013-04-20 07:01:00,
2013-04-20 08:11:00,42.0,41.0,30.40,NNE,22,0.0,0.0,98,0.00,,,0.00,,2013-04-20 07:11:00,
2013-04-20 08:21:00,43.0,42.0,30.40,NNE,13,0.0,0.0,98,0.00,,,0.00,,2013-04-20 07:21:00,
2013-04-20 08:31:00,44.0,43.0,30.40,North,350,0.0,2.0,98,0.00,,,0.00,,2013-04-20 07:31:00,
2013-04-20 08:42:00,45.0,44.0,30.40,NNW,343,0.0,1.0,98,0.00,,,0.00,,2013-04-20 07:42:00,
2013-04-20 08:52:00,45.0,44.0,30.40,NNW,343,0.0,1.0,98,0.00,,,0.00,,2013-04-20 07:52:00,
2013-04-20 09:01:00,49.0,48.0,30.40,NNE,22,0.0,1.0,98,0.00,,,0.00,,2013-04-20 08:01:00,
2013-04-20 09:11:00,49.0,48.0,30.40,NNE,22,0.0,1.0,98,0.00,,,0.00,,2013-04-20 08:11:00,
2013-04-20 09:21:00,51.0,50.0,30.40,North,8,0.0,0.0,97,0.00,,,0.00,,2013-04-20 08:21:00,
2013-04-20 09:31:00,53.0,52.0,30.40,NNW,340,0.0,2.0,95,0.00,,,0.00,,2013-04-20 08:31:00,
2013-04-20 09:42:00,53.0,52.0,30.40,NNW,340,0.0,2.0,95,0.00,,,0.00,,2013-04-20 08:42:00,
2013-04-20 09:52:00,55.0,53.0,30.40,NW,323,1.0,3.0,94,0.00,,,0.00,,2013-04-20 08:52:00,
2013-04-20 10:01:00,57.0,54.0,30.40,ESE,103,0.0,2.0,89,0.00,,,0.00,,2013-04-20 09:01:00,
2013-04-20 10:11:00,57.0,54.0,30.40,ESE,103,0.0,2.0,89,0.00,,,0.00,,2013-04-20 09:11:00,
2013-04-20 10:21:00,58.0,47.0,30.40,ESE,119,2.0,5.0,68,0.00,,,0.00,,2013-04-20 09:21:00,
2013-04-20 10:32:00,58.0,41.0,30.40,SE,130,2.0,5.0,54,0.00,,,0.00,,2013-04-20 09:32:00,
2013-04-20 10:43:00,58.0,33.0,30.40,SSE,166,1.0,6.0,38,0.00,,,0.00,,2013-04-20 09:43:00,
2013-04-20 10:53:00,58.0,33.0,30.40,SSE,166,1.0,6.0,38,0.00,,,0.00,,2013-04-20 09:53:00,
2013-04-20 11:02:00,58.0,31.0,30.40,SE,124,3.0,6.0,35,0.00,,,0.00,,2013-04-20 10:02:00,
2013-04-20 11:12:00,58.0,31.0,30.40,SE,124,3.0,6.0,35,0.00,,,0.00,,2013-04-20 10:12:00,
2013-04-20 11:22:00,58.0,29.0,30.40,SE,127,5.0,6.0,33,0.00,,,0.00,,2013-04-20 10:22:00,
2013-04-20 11:32:00,57.0,30.0,30.40,SSE,150,5.0,7.0,35,0.00,,,0.00,,2013-04-20 10:32:00,
2013-04-20 11:42:00,58.0,29.0,30.40,ESE,116,5.0,6.0,33,0.00,,,0.00,,2013-04-20 10:42:00,
2013-04-20 11:52:00,58.0,29.0,30.40,ESE,116,5.0,6.0,33,0.00,,,0.00,,2013-04-20 10:52:00,
2013-04-20 12:02:00,58.0,28.0,30.40,ESE,114,5.0,9.0,31,0.00,,,0.00,,2013-04-20 11:02:00,
2013-04-20 12:12:00,58.0,29.0,30.40,SSE,148,6.0,8.0,33,0.00,,,0.00,,2013-04-20 11:12:00,
2013-04-20 12:22:00,58.0,29.0,30.40,SSE,148,6.0,8.0,33,0.00,,,0.00,,2013-04-20 11:22:00,
2013-04-20 12:31:00,58.0,28.0,30.40,ESE,121,5.0,8.0,32,0.00,,,0.00,,2013-04-20 11:31:00,
2013-04-20 12:42:00,58.0,28.0,30.40,ESE,121,5.0,8.0,32,0.00,,,0.00,,2013-04-20 11:42:00,
2013-04-20 12:52:00,58.0,30.0,30.40,SE,133,7.0,8.0,34,0.00,,,0.00,,2013-04-20 11:52:00,
2013-04-20 13:02:00,58.0,31.0,30.40,SE,130,5.0,8.0,35,0.00,,,0.00,,2013-04-20 12:02:00,
2013-04-20 13:11:00,58.0,31.0,30.40,SE,130,5.0,8.0,35,0.00,,,0.00,,2013-04-20 12:11:00,
2013-04-20 13:22:00,60.0,32.0,30.40,SE,125,3.0,8.0,35,0.00,,,0.00,,2013-04-20 12:22:00,
2013-04-20 13:32:00,59.0,32.0,30.43,SSE,157,4.0,9.0,36,0.00,,,0.00,,2013-04-20 12:32:00,
2013-04-20 13:42:00,59.0,32.0,30.43,SSE,157,4.0,9.0,36,0.00,,,0.00,,2013-04-20 12:42:00,
2013-04-20 13:52:00,59.0,32.0,30.43,SE,134,4.0,8.0,36,0.00,,,0.00,,2013-04-20 12:52:00,
2013-04-20 14:02:00,59.0,31.0,30.43,SE,133,5.0,8.0,35,0.00,,,0.00,,2013-04-20 13:02:00,
2013-04-20 14:11:00,60.0,32.0,30.43,ESE,117,5.0,8.0,35,0.00,,,0.00,,2013-04-20 13:11:00,
2013-04-20 14:21:00,60.0,32.0,30.43,ESE,117,5.0,8.0,35,0.00,,,0.00,,2013-04-20 13:21:00,
2013-04-20 14:31:00,61.0,33.0,30.43,SE,129,2.0,6.0,35,0.00,,,0.00,,2013-04-20 13:31:00,
2013-04-20 14:41:00,61.0,33.0,30.43,SE,131,5.0,8.0,35,0.00,,,0.00,,2013-04-20 13:41:00,
2013-04-20 14:52:00,61.0,33.0,30.43,SE,131,5.0,8.0,35,0.00,,,0.00,,2013-04-20 13:52:00,
2013-04-20 15:01:00,61.0,33.0,30.43,South,179,3.0,6.0,35,0.00,,,0.00,,2013-04-20 14:01:00,
2013-04-20 15:11:00,61.0,32.0,30.43,SE,141,4.0,7.0,34,0.00,,,0.00,,2013-04-20 14:11:00,
2013-04-20 15:21:00,61.0,32.0,30.43,SE,141,4.0,7.0,34,0.00,,,0.00,,2013-04-20 14:21:00,
2013-04-20 15:31:00,61.0,32.0,30.43,SE,141,4.0,7.0,34,0.00,,,0.00,,2013-04-20 14:31:00,
2013-04-20 15:41:00,61.0,32.0,30.43,SE,141,4.0,7.0,34,0.00,,,0.00,,2013-04-20 14:41:00,
2013-04-20 15:52:00,61.0,33.0,30.43,South,190,3.0,6.0,35,0.00,,,0.00,,2013-04-20 14:52:00,
2013-04-20 16:01:00,61.0,33.0,30.43,South,190,3.0,6.0,35,0.00,,,0.00,,2013-04-20 15:01:00,
2013-04-20 16:11:00,61.0,33.0,30.43,South,190,3.0,6.0,35,0.00,,,0.00,,2013-04-20 15:11:00,
2013-04-20 16:21:00,59.0,32.0,30.43,SSE,166,3.0,9.0,36,0.00,,,0.00,,2013-04-20 15:21:00,
2013-04-20 16:33:00,58.0,31.0,30.43,SE,144,5.0,8.0,36,0.00,,,0.00,,2013-04-20 15:33:00,
2013-04-20 16:43:00,58.0,31.0,30.43,SSE,164,5.0,8.0,36,0.00,,,0.00,,2013-04-20 15:43:00,
2013-04-20 16:53:00,58.0,31.0,30.43,SSE,164,5.0,8.0,36,0.00,,,0.00,,2013-04-20 15:53:00,
2013-04-20 17:03:00,58.0,31.0,30.43,SE,142,5.0,9.0,36,0.00,,,0.00,,2013-04-20 16:03:00,
2013-04-20 17:12:00,55.0,31.0,30.43,SE,144,4.0,7.0,40,0.00,,,0.00,,2013-04-20 16:12:00,
2013-04-20 17:23:00,55.0,31.0,30.43,SE,144,4.0,7.0,40,0.00,,,0.00,,2013-04-20 16:23:00,
2013-04-20 17:32:00,55.0,31.0,30.43,ESE,114,7.0,9.0,40,0.00,,,0.00,,2013-04-20 16:32:00,
2013-04-20 17:41:00,56.0,31.0,30.40,SSE,150,6.0,10.0,39,0.00,,,0.00,,2013-04-20 16:41:00,
2013-04-20 17:52:00,56.0,31.0,30.40,SSE,150,6.0,10.0,39,0.00,,,0.00,,2013-04-20 16:52:00,
2013-04-20 18:02:00,55.0,32.0,30.40,SE,131,5.0,8.0,42,0.00,,,0.00,,2013-04-20 17:02:00,
2013-04-20 18:11:00,56.0,33.0,30.40,ESE,117,3.0,7.0,41,0.00,,,0.00,,2013-04-20 17:11:00,
2013-04-20 18:22:00,56.0,33.0,30.40,ESE,117,3.0,7.0,41,0.00,,,0.00,,2013-04-20 17:22:00,
2013-04-20 18:32:00,55.0,31.0,30.40,ESE,112,5.0,8.0,39,0.00,,,0.00,,2013-04-20 17:32:00,
2013-04-20 18:41:00,55.0,31.0,30.40,ESE,112,5.0,8.0,39,0.00,,,0.00,,2013-04-20 17:41:00,
2013-04-20 18:52:00,54.0,31.0,30.40,NE,54,4.0,7.0,41,0.00,,,0.00,,2013-04-20 17:52:00,
2013-04-20 19:02:00,55.0,31.0,30.40,SE,127,2.0,5.0,40,0.00,,,0.00,,2013-04-20 18:02:00,
2013-04-20 19:12:00,54.0,30.0,30.40,South,187,4.0,6.0,40,0.00,,,0.00,,2013-04-20 18:12:00,
2013-04-20 19:22:00,54.0,30.0,30.40,South,187,4.0,6.0,40,0.00,,,0.00,,2013-04-20 18:22:00,
2013-04-20 19:32:00,54.0,30.0,30.40,SSW,198,1.0,6.0,40,0.00,,,0.00,,2013-04-20 18:32:00,
2013-04-20 19:41:00,54.0,30.0,30.40,SSW,198,1.0,6.0,40,0.00,,,0.00,,2013-04-20 18:41:00,
2013-04-20 19:52:00,53.0,30.0,30.40,West,269,1.0,6.0,41,0.00,,,0.00,,2013-04-20 18:52:00,
2013-04-20 20:01:00,53.0,30.0,30.40,West,273,2.0,5.0,41,0.00,,,0.00,,2013-04-20 19:01:00,
2013-04-20 20:11:00,51.0,29.0,30.40,NE,34,1.0,2.0,42,0.00,,,0.00,,2013-04-20 19:11:00,
2013-04-20 20:21:00,51.0,29.0,30.40,NE,34,1.0,2.0,42,0.00,,,0.00,,2013-04-20 19:21:00,
2013-04-20 20:31:00,49.0,29.0,30.40,North,355,1.0,3.0,45,0.00,,,0.00,,2013-04-20 19:31:00,
2013-04-20 20:41:00,48.0,30.0,30.40,SSW,202,1.0,20.0,49,0.00,,,0.00,,2013-04-20 19:41:00,
2013-04-20 20:52:00,48.0,30.0,30.40,SSW,202,1.0,20.0,49,0.00,,,0.00,,2013-04-20 19:52:00,
2013-04-20 21:01:00,47.0,31.0,30.40,ENE,73,1.0,3.0,53,0.00,,,0.00,,2013-04-20 20:01:00,
2013-04-20 21:11:00,47.0,33.0,30.40,South,183,1.0,3.0,59,0.00,,,0.00,,2013-04-20 20:11:00,
2013-04-20 21:21:00,47.0,33.0,30.40,South,183,1.0,3.0,59,0.00,,,0.00,,2013-04-20 20:21:00,
2013-04-20 21:32:00,46.0,34.0,30.37,South,185,0.0,2.0,63,0.00,,,0.00,,2013-04-20 20:32:00,
2013-04-20 21:42:00,46.0,34.0,30.37,South,185,0.0,2.0,63,0.00,,,0.00,,2013-04-20 20:42:00,
2013-04-20 21:52:00,46.0,37.0,30.40,SE,140,2.0,5.0,72,0.00,,,0.00,,2013-04-20 20:52:00,
2013-04-20 22:01:00,46.0,38.0,30.40,SW,233,1.0,2.0,73,0.00,,,0.00,,2013-04-20 21:01:00,
2013-04-20 22:12:00,46.0,38.0,30.37,South,180,1.0,2.0,74,0.00,,,0.00,,2013-04-20 21:12:00,
2013-04-20 22:21:00,46.0,38.0,30.37,South,180,1.0,2.0,74,0.00,,,0.00,,2013-04-20 21:21:00,
2013-04-20 22:32:00,46.0,39.0,30.37,WSW,237,0.0,0.0,75,0.00,,,0.00,,2013-04-20 21:32:00,
2013-04-20 22:43:00,46.0,39.0,30.37,WSW,237,0.0,0.0,75,0.00,,,0.00,,2013-04-20 21:43:00,
2013-04-20 22:52:00,46.0,39.0,30.37,West,259,1.0,2.0,76,0.00,,,0.00,,2013-04-20 21:52:00,
2013-04-20 23:02:00,45.0,38.0,30.37,WSW,248,0.0,0.0,75,0.00,,,0.00,,2013-04-20 22:02:00,
2013-04-20 23:12:00,45.0,38.0,30.37,West,270,0.0,0.0,77,0.00,,,0.00,,2013-04-20 22:12:00,
2013-04-20 23:22:00,45.0,38.0,30.37,West,270,0.0,0.0,77,0.00,,,0.00,,2013-04-20 22:22:00,
2013-04-20 23:32:00,44.0,37.0,30.34,NNW,338,0.0,0.0,77,0.00,,,0.00,,2013-04-20 22:32:00,
2013-04-20 23:42:00,44.0,37.0,30.34,NNW,338,0.0,0.0,77,0.00,,,0.00,,2013-04-20 22:42:00,
2013-04-20 23:52:00,44.0,38.0,30.34,NNW,338,0.0,0.0,79,0.00,,,0.00,,2013-04-20 22:52:00,